{"data":{"norad_id":40921,"intl_designator":"2015-050B","name":"COSMOS 2508 (RODNIK-S *)","alt_names":[],"object_type":"PAYLOAD","status":"ACTIVE","operator":null,"country":"CIS","launch_date":"2015-09-23","launch_site_code":"PLMSC","launch_vehicle":null,"mission":null,"orbit_class":"UNKNOWN","rcs_meters":1.5039,"size_class":null,"mass_kg":null,"dimensions":null,"purposes":[],"wikipedia_slug":null,"has_3d_model":false,"image_url":null,"decayed_at":null,"tle_current":{"epoch":"2026-05-25T03:58:28.606368Z","epoch_age_seconds":71462,"freshness":"FRESH","line1":"1 40921U 15050B   26145.16560887  .00000024  00000+0  98091-4 0  9992","line2":"2 40921  82.4858  92.5159 0015559  73.6867 286.5922 12.42913342483983","mean_motion":12.42913342,"eccentricity":0.0015559,"inclination_deg":82.4858,"raan_deg":92.5159,"arg_perigee_deg":73.6867,"mean_anomaly_deg":286.5922,"bstar":9.8091e-5,"rev_number":48398,"period_min":115.85683018599,"perigee_km":1482.0286068905,"apogee_km":1506.5259856977,"semimajor_km":7872.4142962941,"source":"CELESTRAK","updated_at":"2026-05-25T13:37:55.553750Z"}}}